Voltar ao catálogo

CZ-4 DEB

AtivoSSO
NORAD 26310·DEBRIS·🇨🇳 China

Lançado Oct 14, 1999 de Taiyuan Satellite Launch Center

Loading…

Próximas Passagens (próximas 24 horas)

TLE

AtualizadoSource: Space-Track

Época: Sep 14, 2026, 10:37 UTC

1 26310U 99057GT  26257.44265128  .00000833  00000-0  22315-3 0  9996
2 26310  98.5228 325.7482 0089471 115.0350 258.6538 14.48573847390137

Acompanhe CZ-4 DEB em tempo real com AllMySat

Download on the App Store